FW8645 Weather Reports


time (UTC)temp
F
wind
direction
speed
knots
gust
knots
rain 1hr
in
rain 24hr
in
rain mn
in
humidity
%
barometer
mb
20260507212327 59 238 1.7 14.8 0.00 0.03 0.00 33 1004.5
20260507211822 59 278 5.2 14.8 0.00 0.03 0.00 32 1004.5
20260507211318 58 279 5.2 11.3 0.00 0.03 0.00 33 1004.5
20260507210813 58 254 5.2 13.9 0.00 0.03 0.00 34 1004.5
20260507210313 58 287 7.0 13.9 0.00 0.03 0.00 31 1004.4
20260507205827 59 224 7.0 18.2 0.00 0.03 0.00 33 1004.4
20260507205323 59 287 10.4 18.2 0.00 0.03 0.00 32 1004.4
20260507204819 59 285 3.5 18.2 0.00 0.03 0.00 33 1004.3
20260507204315 58 264 7.8 18.2 0.00 0.03 0.00 32 1004.4
20260507203829 59 275 4.3 15.6 0.00 0.03 0.00 33 1004.3
20260507203324 59 266 6.1 15.6 0.00 0.03 0.00 33 1004.2
20260507202840 59 222 5.2 11.3 0.00 0.03 0.00 35 1004.3
20260507202318 59 252 3.5 14.8 0.00 0.11 0.00 34 1004.4
20260507201834 60 257 7.0 13.9 0.00 0.11 0.00 33 1004.5
20260507201327 59 267 3.5 15.6 0.00 0.11 0.00 35 1004.4
20260507200822 59 283 4.3 13.9 0.00 0.11 0.00 36 1004.4
20260507200318 59 240 7.0 14.8 0.00 0.11 0.00 36 1004.3
20260507195813 59 268 3.5 13.0 0.00 0.11 0.00 35 1004.4
20260507195327 58 247 3.5 11.3 0.00 0.11 0.00 36 1004.4
20260507194822 58 261 2.6 11.3 0.00 0.11 0.00 35 1004.6
20260507194337 59 12 4.3 15.6 0.00 0.11 0.00 34 1004.5
20260507193816 59 264 8.7 15.6 0.00 0.11 0.00 32 1004.4
20260507193349 59 221 5.2 11.3 0.00 0.11 0.00 34 1004.4
20260507192822 59 249 2.6 13.0 0.00 0.11 0.00 34 1004.5
20260507192317 59 277 7.8 17.4 0.00 0.13 0.00 35 1004.5
20260507191828 59 268 10.4 17.4 0.00 0.13 0.00 33 1004.5
20260507191322 60 232 3.5 12.2 0.00 0.13 0.00 37 1004.6
20260507190818 59 268 4.3 16.5 0.00 0.13 0.00 34 1004.6
20260507190314 60 278 6.1 16.5 0.00 0.13 0.00 33 1004.6
20260507185813 60 264 3.5 16.5 0.00 0.13 0.00 34 1004.7
20260507185326 59 266 2.6 16.5 0.00 0.13 0.00 33 1004.7
20260507184823 59 241 4.3 19.1 0.00 0.13 0.00 36 1004.8
20260507184319 60 265 8.7 19.1 0.00 0.13 0.00 35 1004.6
20260507183816 60 237 2.6 9.6 0.00 0.13 0.00 38 1004.6
20260507183312 59 234 6.1 12.2 0.00 0.13 0.00 37 1004.8
20260507182829 59 313 3.5 15.6 0.00 0.13 0.00 41 1004.7
20260507182329 59 261 5.2 13.0 0.00 0.21 0.00 41 1004.8
20260507181319 58 263 8.7 13.0 0.00 0.21 0.00 39 1004.9
20260507180816 58 221 5.2 13.9 0.00 0.21 0.00 39 1004.8
20260507180313 58 228 7.0 14.8 0.00 0.21 0.00 40 1004.9
20260507175827 59 281 3.5 14.8 0.00 0.21 0.00 42 1004.8
20260507175323 58 263 5.2 19.1 0.00 0.21 0.00 43 1004.9
20260507174839 58 281 9.6 19.1 0.00 0.21 0.00 44 1004.9
20260507174318 58 269 8.7 20.0 0.00 0.21 0.00 42 1004.8
20260507173813 58 228 7.8 20.0 0.00 0.21 0.00 42 1004.9
20260507173326 58 243 7.0 17.4 0.00 0.21 0.00 42 1005.0
20260507172822 58 312 5.2 15.6 0.00 0.21 0.00 42 1005.0
20260507172316 58 249 7.0 14.8 0.00 0.23 0.00 41 1005.3
20260507171850 58 259 3.5 13.0 0.00 0.23 0.00 39 1005.2
20260507171324 57 254 7.8 13.0 0.00 0.23 0.00 39 1005.4
20260507170840 57 263 6.1 13.9 0.00 0.23 0.00 42 1005.4
20260507170318 56 275 6.1 19.1 0.00 0.23 0.00 42 1005.4
20260507165834 56 332 3.5 19.1 0.00 0.23 0.00 43 1005.4
20260507165328 57 282 4.3 12.2 0.00 0.23 0.00 43 1005.5
20260507164824 57 270 6.1 13.9 0.00 0.23 0.00 44 1005.4
20260507164319 57 249 5.2 13.9 0.00 0.23 0.00 46 1005.6
20260507163835 57 270 2.6 7.8 0.00 0.23 0.00 49 1005.8
20260507163329 56 285 4.3 21.7 0.00 0.23 0.00 51 1005.7
20260507162825 56 294 9.6 21.7 0.00 0.23 0.00 53 1006.0
20260507162320 55 263 8.7 14.8 0.00 0.23 0.00 55 1006.1
20260507161819 55 262 3.5 9.6 0.00 0.23 0.00 56 1006.0
20260507161314 55 287 3.5 13.0 0.00 0.23 0.00 56 1005.9
20260507160829 55 282 7.8 13.0 0.00 0.23 0.00 54 1006.0
20260507160325 55 261 4.3 9.6 0.00 0.23 0.00 55 1006.2
20260507155820 55 266 2.6 13.9 0.00 0.23 0.00 56 1006.2
20260507155316 55 252 2.6 8.7 0.00 0.23 0.00 58 1006.2
20260507154812 54 233 4.3 8.7 0.00 0.23 0.00 59 1006.3
20260507154347 54 274 4.3 14.8 0.00 0.23 0.00 58 1006.3
20260507153826 54 257 6.1 14.8 0.00 0.23 0.00 58 1006.3
20260507153320 53 276 5.2 14.8 0.00 0.23 0.00 61 1006.6
20260507152816 54 226 7.8 13.0 0.00 0.23 0.00 60 1006.6
20260507152330 54 247 3.5 13.0 0.00 0.23 0.00 62 1006.6
20260507151826 53 276 5.2 13.0 0.00 0.23 0.00 62 1006.6
20260507151341 54 245 3.5 16.5 0.00 0.23 0.00 61 1006.6
20260507150815 55 250 6.1 16.5 0.00 0.23 0.00 58 1006.6
20260507150315 55 332 3.5 11.3 0.00 0.23 0.00 62 1006.4
20260507145830 55 269 5.2 16.5 0.00 0.23 0.00 61 1006.5
20260507145326 54 238 9.6 18.2 0.00 0.23 0.00 60 1006.5
20260507144821 54 252 8.7 18.2 0.00 0.23 0.00 62 1006.4
20260507144316 54 258 7.8 16.5 0.00 0.23 0.00 62 1006.4
20260507143813 54 251 5.2 13.9 0.00 0.23 0.00 65 1006.3
20260507143326 54 280 7.0 18.2 0.00 0.23 0.00 62 1006.3
20260507142841 55 285 8.7 18.2 0.00 0.23 0.00 60 1006.3
20260507142319 54 263 6.1 14.8 0.00 0.23 0.00 63 1006.3
20260507141834 54 275 8.7 14.8 0.00 0.23 0.00 61 1006.3
20260507141327 54 224 6.1 11.3 0.00 0.23 0.00 63 1006.4
20260507140823 53 280 6.1 16.5 0.00 0.23 0.00 64 1006.3
20260507140318 53 252 7.0 16.5 0.00 0.23 0.00 64 1006.5
20260507135852 53 247 8.7 15.6 0.00 0.23 0.00 63 1006.4
20260507135323 54 248 6.1 13.9 0.00 0.23 0.00 64 1006.4
20260507134819 54 239 7.0 12.2 0.00 0.23 0.00 64 1006.4
20260507134315 54 252 6.1 13.0 0.00 0.23 0.00 64 1006.4
20260507133814 54 230 6.1 11.3 0.00 0.23 0.00 65 1006.3
20260507133330 53 233 4.3 9.6 0.00 0.23 0.00 66 1006.4
20260507132846 53 230 4.3 12.2 0.00 0.23 0.00 67 1006.5
20260507132320 53 256 3.5 9.6 0.00 0.23 0.00 68 1006.6
20260507131835 53 247 4.3 9.6 0.00 0.23 0.00 67 1006.6
20260507131350 52 244 5.2 9.6 0.00 0.23 0.00 68 1006.6
20260507130845 52 223 0.9 7.0 0.00 0.23 0.00 71 1006.7
20260507130319 52 255 4.3 9.6 0.00 0.23 0.00 70 1006.6
20260507125814 51 278 5.2 9.6 0.00 0.23 0.00 69 1006.6
20260507125329 52 232 4.3 9.6 0.00 0.23 0.00 71 1006.6
20260507124829 52 242 4.3 8.7 0.00 0.23 0.00 72 1006.6
20260507124324 51 263 5.2 8.7 0.00 0.23 0.00 71 1006.7
20260507123820 51 257 3.5 8.7 0.00 0.23 0.00 72 1006.5
20260507123335 51 233 3.5 8.7 0.00 0.23 0.00 73 1006.6
20260507122830 51 247 1.7 7.0 0.00 0.23 0.00 72 1006.6
20260507122325 51 242 2.6 7.0 0.00 0.23 0.00 73 1006.7
20260507121821 51 251 2.6 5.2 0.00 0.23 0.00 73 1006.7
20260507121316 50 239 2.6 7.8 0.00 0.23 0.00 77 1006.8
20260507120837 50 235 3.5 7.8 0.00 0.23 0.00 77 1006.9
20260507120351 50 223 3.5 7.8 0.00 0.23 0.00 77 1006.9
20260507115826 50 286 3.5 8.7 0.00 0.23 0.00 77 1007.0
20260507115321 49 236 3.5 7.8 0.00 0.23 0.00 78 1007.0
20260507114817 49 244 2.6 7.0 0.00 0.23 0.00 79 1007.0
20260507114312 49 242 1.7 7.0 0.00 0.23 0.00 78 1006.9
20260507113826 49 246 3.5 6.1 0.00 0.23 0.00 78 1006.8
20260507113322 49 254 2.6 6.1 0.00 0.23 0.00 80 1006.8
20260507112821 49 252 1.7 4.3 0.00 0.23 0.00 80 1006.8
20260507112317 49 261 1.7 3.5 0.00 0.23 0.00 82 1006.8
20260507111812 48 240 0.0 2.6 0.00 0.23 0.00 84 1006.6
20260507111327 48 240 0.9 2.6 0.00 0.23 0.00 83 1006.7
20260507110822 48 240 0.0 0.9 0.00 0.23 0.00 84 1006.6
20260507110318 48 240 0.0 0.9 0.00 0.23 0.00 86 1006.5
20260507105813 47 240 0.0 0.9 0.00 0.23 0.00 86 1006.5
20260507105312 47 240 0.0 0.9 0.00 0.23 0.00 88 1006.4
20260507104848 46 240 0.0 0.0 0.00 0.23 0.00 89 1006.5
20260507104322 46 240 0.0 0.0 0.00 0.23 0.00 91 1006.5
20260507103818 45 240 0.0 1.7 0.00 0.23 0.00 92 1006.5
20260507103313 44 240 0.0 1.7 0.00 0.23 0.00 92 1006.6
20260507102848 43 240 0.0 0.9 0.00 0.23 0.00 92 1006.8
20260507102323 43 240 0.0 1.7 0.00 0.23 0.00 92 1006.8
20260507101819 43 240 0.0 2.6 0.00 0.23 0.00 92 1006.6
20260507101335 43 240 0.0 3.5 0.00 0.23 0.00 92 1006.5
20260507100814 43 240 0.0 3.5 0.00 0.23 0.00 92 1006.8
20260507100329 43 259 0.0 0.9 0.00 0.23 0.00 93 1006.7
20260507095824 43 259 0.0 1.7 0.00 0.23 0.00 93 1006.9
20260507095320 43 259 0.0 0.9 0.00 0.23 0.00 93 1006.7
20260507094816 43 259 0.0 0.9 0.00 0.23 0.00 93 1006.8
20260507094313 44 259 0.0 1.7 0.00 0.23 0.00 93 1006.6
20260507093848 44 259 0.0 4.3 0.00 0.23 0.00 94 1006.8
20260507093342 44 259 1.7 4.3 0.00 0.23 0.00 94 1006.7
20260507092817 43 268 1.7 3.5 0.00 0.23 0.00 94 1006.8
20260507092316 43 231 0.0 1.7 0.00 0.23 0.00 94 1006.7
20260507091812 43 231 0.9 1.7 0.00 0.23 0.00 94 1006.3
20260507091327 43 231 0.9 1.7 0.00 0.23 0.00 94 1006.1
20260507090823 43 231 0.9 1.7 0.00 0.23 0.00 93 1006.0
20260507090318 44 231 0.0 0.9 0.00 0.23 0.00 93 1006.0
20260507085812 44 231 0.0 0.9 0.00 0.23 0.00 93 1006.2
20260507085328 44 231 0.0 1.7 0.00 0.23 0.00 93 1006.2
20260507084827 44 231 0.0 1.7 0.00 0.23 0.00 92 1006.3
20260507084323 44 231 0.0 1.7 0.00 0.23 0.00 92 1006.2
20260507083818 45 231 0.9 1.7 0.00 0.23 0.00 92 1006.4
20260507083313 45 231 0.0 0.9 0.00 0.23 0.00 91 1006.2
20260507082848 45 231 0.0 0.9 0.00 0.23 0.00 91 1006.0
20260507082323 45 231 0.0 5.2 0.00 0.23 0.00 92 1006.2
20260507081840 45 242 1.7 5.2 0.00 0.23 0.00 92 1006.4
20260507081333 45 249 1.7 4.3 0.00 0.23 0.00 92 1006.2
20260507080827 45 255 0.9 3.5 0.00 0.23 0.00 92 1006.0
20260507080327 45 255 0.0 3.5 0.00 0.23 0.00 92 1006.1
20260507075842 45 255 1.7 3.5 0.00 0.23 0.00 92 1006.2
20260507075317 45 249 0.9 2.6 0.00 0.23 0.00 91 1006.0
20260507074813 45 249 0.9 2.6 0.00 0.23 0.00 91 1006.0
20260507074326 46 249 0.9 2.6 0.00 0.23 0.00 90 1005.5
20260507073821 46 268 0.9 1.7 0.00 0.23 0.00 90 1005.7
20260507073317 46 268 0.0 0.9 0.00 0.23 0.00 90 1005.5
20260507072813 46 268 0.0 5.2 0.00 0.23 0.00 90 1005.5
20260507072348 46 268 0.9 5.2 0.00 0.23 0.00 90 1005.6
20260507071827 46 258 0.9 5.2 0.00 0.23 0.00 90 1005.7
20260507071322 46 261 0.9 7.8 0.00 0.23 0.00 90 1005.5
20260507070818 47 247 1.7 7.8 0.00 0.23 0.00 90 1005.7
20260507070314 47 268 4.3 7.8 0.00 0.23 0.00 89 1005.5
20260507065849 47 235 1.7 7.8 0.00 0.23 0.00 89 1005.5
20260507065324 47 278 3.5 8.7 0.00 0.23 0.00 89 1005.8
20260507064819 47 257 3.5 8.7 0.00 0.23 0.00 90 1005.6
20260507064335 47 259 5.2 9.6 0.00 0.23 0.00 90 1005.6
20260507063814 47 269 3.5 13.0 0.00 0.23 0.00 91 1005.6
20260507063329 47 241 7.0 13.0 0.00 0.23 0.00 91 1005.3
20260507062825 47 268 5.2 12.2 0.00 0.23 0.00 91 1005.2
20260507062320 47 229 5.2 13.0 0.00 0.23 0.00 91 1005.1
20260507061816 47 232 7.0 13.0 0.00 0.23 0.00 91 1005.0
20260507061351 47 237 4.3 12.2 0.00 0.23 0.00 91 1005.0
20260507060826 47 256 6.1 13.9 0.00 0.23 0.00 91 1005.0
20260507060321 47 262 6.1 10.4 0.00 0.23 0.00 91 1005.1
20260507055836 47 253 6.1 13.9 0.00 0.23 0.00 91 1005.2
20260507055314 47 260 5.2 11.3 0.00 0.23 0.00 92 1005.3
20260507054830 47 252 4.3 11.3 0.00 0.23 0.00 92 1005.0
20260507054325 48 264 4.3 8.7 0.00 0.23 0.00 92 1005.1
20260507053840 48 277 3.5 8.7 0.00 0.23 0.00 92 1005.0
20260507053314 48 245 3.5 7.8 0.00 0.23 0.00 92 1004.9
20260507052831 48 235 2.6 8.7 0.00 0.23 0.00 92 1004.7
20260507052326 48 239 4.3 8.7 0.00 0.23 0.00 92 1004.9
20260507051822 48 247 3.5 8.7 0.00 0.23 0.00 92 1004.9
20260507051340 48 245 3.5 8.7 0.00 0.23 0.00 92 1005.0
20260507050815 48 218 4.3 12.2 0.00 0.23 0.00 92 1004.9
20260507050330 48 259 4.3 12.2 0.00 0.23 0.00 92 1004.8
20260507045826 48 237 4.3 8.7 0.00 0.23 0.00 93 1005.0
20260507045321 48 261 4.3 8.7 0.00 0.23 0.00 92 1004.8
20260507044817 48 284 3.5 7.0 0.00 0.23 0.00 93 1004.9
20260507044313 48 235 2.6 7.8 0.00 0.23 0.00 92 1004.9
20260507043812 49 257 4.3 11.3 0.00 0.23 0.00 92 1004.8
20260507043348 49 254 4.3 11.3 0.00 0.23 0.00 92 1004.8
20260507042822 49 235 5.2 10.4 0.00 0.23 0.00 92 1005.0
20260507042318 49 262 3.5 9.6 0.00 0.23 0.00 92 1004.8
20260507041814 49 248 6.1 9.6 0.00 0.23 0.00 93 1004.7
20260507041349 49 277 5.2 13.0 0.00 0.23 0.00 93 1004.8
20260507040823 49 234 5.2 11.3 0.00 0.23 0.00 93 1004.8
20260507040319 49 253 4.3 7.8 0.00 0.23 0.00 93 1004.8
20260507035815 50 262 1.7 10.4 0.00 0.23 0.00 93 1004.6
20260507035314 50 252 4.3 11.3 0.00 0.23 0.00 92 1004.7
20260507034850 50 271 3.5 13.0 0.00 0.23 0.00 93 1004.7
20260507034325 50 266 4.3 13.0 0.00 0.23 0.00 93 1004.7
20260507033818 50 236 3.5 7.8 0.00 0.23 0.00 93 1004.7
20260507033314 51 247 5.2 8.7 0.00 0.23 0.00 93 1004.7
20260507032829 51 245 5.2 10.4 0.01 0.23 0.00 93 1004.8
20260507032325 51 238 5.2 11.3 0.01 0.23 0.23 93 1004.7
20260507031821 51 224 6.1 11.3 0.01 0.23 0.23 93 1004.8
20260507031321 51 244 7.0 10.4 0.01 0.23 0.23 92 1004.7
20260507030817 51 240 7.0 10.4 0.01 0.23 0.23 92 1004.7
20260507030312 52 228 4.3 13.0 0.01 0.23 0.23 92 1004.6
20260507025827 52 252 7.0 13.0 0.01 0.23 0.23 92 1004.8
20260507025323 52 260 6.1 12.2 0.01 0.23 0.23 91 1004.6
20260507024818 53 286 4.3 11.3 0.01 0.23 0.23 92 1004.4
20260507024313 54 265 1.7 7.8 0.01 0.23 0.23 92 1004.3
20260507023848 54 245 1.7 7.8 0.01 0.23 0.23 92 1004.2
20260507023343 54 226 2.6 7.8 0.01 0.23 0.23 92 1004.2
20260507022820 55 234 3.5 5.2 0.00 0.22 0.22 92 1004.2
20260507022316 55 239 1.7 7.8 0.00 0.22 0.22 93 1004.2
20260507021852 55 226 5.2 7.8 0.00 0.22 0.22 92 1004.2
20260507021326 55 237 3.5 8.7 0.00 0.22 0.22 92 1004.1
20260507020822 56 235 1.7 7.0 0.00 0.22 0.22 92 1004.1
20260507020338 56 233 3.5 10.4 0.01 0.22 0.22 93 1004.2
20260507015812 56 235 3.5 8.7 0.01 0.22 0.22 93 1004.1
20260507015348 57 255 4.3 7.8 0.01 0.22 0.22 93 1004.2
20260507014822 57 252 2.6 5.2 0.01 0.22 0.22 93 1004.0
20260507014337 57 222 2.6 6.1 0.01 0.22 0.22 93 1004.0
20260507013815 57 242 0.9 6.1 0.01 0.22 0.22 93 1004.0
20260507013329 57 271 2.6 6.1 0.01 0.22 0.22 93 1004.0
20260507012821 58 247 1.7 7.0 0.01 0.22 0.22 93 1004.1
20260507012314 58 253 3.5 7.8 0.01 0.22 0.22 93 1004.0
20260507011828 58 263 2.6 9.6 0.01 0.22 0.22 93 1004.0
20260507011342 58 270 3.5 9.6 0.01 0.22 0.22 93 1004.0
20260507010852 59 256 5.2 12.2 0.01 0.22 0.22 93 1003.9
20260507010325 59 238 4.3 9.6 0.00 0.21 0.21 93 1004.0
20260507005816 59 275 5.2 11.3 0.00 0.21 0.21 93 1004.0
20260507005315 59 280 3.5 7.8 0.00 0.21 0.21 92 1003.9
20260507004847 59 251 2.6 8.7 0.00 0.21 0.21 92 1003.8
20260507004318 59 240 4.3 8.7 0.00 0.21 0.21 92 1003.8
20260507003829 59 238 3.5 8.7 0.00 0.21 0.21 92 1003.7
20260507003321 59 249 4.3 11.3 0.00 0.21 0.21 92 1003.7
20260507002815 59 250 3.5 11.3 0.00 0.21 0.21 92 1003.7
20260507002331 59 227 4.3 10.4 0.00 0.21 0.21 92 1003.6
20260507001825 59 237 3.5 11.3 0.00 0.21 0.21 92 1003.5
20260507001321 60 235 5.2 11.3 0.00 0.21 0.21 92 1003.6
20260507000832 60 249 7.0 12.2 0.00 0.21 0.21 92 1003.5
20260507000321 60 238 5.2 12.2 0.00 0.21 0.21 91 1003.5
20260506235812 60 228 4.3 12.2 0.00 0.21 0.21 91 1003.5
20260506235327 60 235 3.5 13.0 0.00 0.21 0.21 91 1003.4
20260506234823 60 195 5.2 13.0 0.00 0.21 0.21 91 1003.3
20260506234318 60 251 4.3 11.3 0.00 0.21 0.21 91 1003.3
20260506233833 60 235 2.6 12.2 0.00 0.21 0.21 91 1003.3
20260506233347 60 221 6.1 12.2 0.00 0.21 0.21 91 1003.4
20260506232822 60 225 3.5 11.3 0.00 0.21 0.21 91 1003.3
20260506232341 60 232 4.3 11.3 0.00 0.23 0.21 90 1003.3
20260506231816 60 242 5.2 16.5 0.00 0.23 0.21 90 1003.4
20260506231313 60 222 3.5 16.5 0.00 0.23 0.21 90 1003.3
20260506230827 60 249 6.1 12.2 0.00 0.23 0.21 90 1003.4
20260506230323 60 223 7.0 12.2 0.00 0.23 0.21 90 1003.4
20260506225819 60 223 4.3 11.3 0.00 0.23 0.21 91 1003.4
20260506225314 60 218 7.8 13.9 0.00 0.23 0.21 91 1003.5
20260506224813 61 230 5.2 13.9 0.00 0.23 0.21 91 1003.5
20260506224328 61 225 7.8 11.3 0.00 0.23 0.21 91 1003.5
20260506223844 61 232 3.5 13.9 0.00 0.23 0.21 91 1003.5
20260506223318 61 240 3.5 13.0 0.00 0.23 0.21 91 1003.6
20260506222814 61 234 4.3 8.7 0.00 0.23 0.21 91 1003.6
20260506222329 61 233 4.3 9.6 0.00 0.23 0.21 91 1003.6
20260506221845 61 241 1.7 9.6 0.00 0.23 0.21 91 1003.5
20260506221318 61 229 5.2 10.4 0.00 0.23 0.21 92 1003.5
20260506220813 61 229 2.6 12.2 0.00 0.23 0.21 92 1003.7
20260506220313 61 264 5.2 12.2 0.00 0.23 0.21 92 1003.8
20260506215846 61 247 0.9 7.8 0.00 0.23 0.21 92 1003.7
20260506215320 61 237 1.7 9.6 0.00 0.23 0.21 92 1003.7
20260506214816 61 238 2.6 13.0 0.00 0.23 0.21 92 1003.7
20260506214332 61 210 4.3 13.0 0.00 0.23 0.21 92 1003.8
20260506213827 61 237 3.5 9.6 0.00 0.23 0.21 92 1003.8
20260506213323 61 228 5.2 9.6 0.01 0.23 0.21 92 1003.9
20260506212819 61 254 2.6 10.4 0.01 0.23 0.21 92 1004.0